"Pseudo-MPEC" for P10NLQU

Created 2019 May 21 8:07:17 UT using Find_Orb

Click here for an explanation of pseudo-MPECs

 
 Astrometry: 
     P10NLQU  C2019 05 09qYia$R#GA6F%4XVb#i,7V1HDN^'b;KY^f77C92Y_kGqG0O7pfG[hF51
     P10NLQU  C2019 05 09l/sqMf+`KrR;kNO*?v!f`PW0p%k_qeDKFLlQfq#3sc;HmZxI9yXIF51
     P10NLQU  C2019 05 09p7;/boN,At2gy^]=KV[fXN1wJQ2s!#h0e^8LYg^m7^*/c;jOsO^pF51
     P10NLQU KC2019 05 11).Gp\Hs$2_bAstrometry$1ukIu8a3Cpv^`K1XTJN^redacted;X691
     P10NLQU KC2019 05 11O.nQ's=f5BQ13!`LtIfp-Lvr^*B3hUP#clicknXv1xfSPQg+7m!1691
     P10NLQU KC2019 05 11g\Im2uQ_M[5POmM`lm:vD['[N\GjI)mohm1`fp3hereG,dvSk6E^691
     P10NLQU  C2019 05 11.37051 16 12 09.95 +15 47 55.7    ~5B9M 21.6 GVNEOCPV06
     P10NLQU  C2019 05 11.37393 16 12 10.10 +15 48 01.3    ~5B9M 21.6 GVNEOCPV06
     P10NLQU  C2019 05 11.37735 16 12 10.29 +15 48 07.5    ~5B9M 21.9 GVNEOCPV06
     P10NLQU  C2019 05 11.38077 16 12 10.44 +15 48 14.1    ~5B9M 21.5 GVNEOCPV06
     P10NLQU  C2019 05 14.29266316 15 10.35 +17 16 23.5    ~5E7q 21.0 GVNEOCPH01
     P10NLQU  C2019 05 14.29692616 15 10.56 +17 16 31.3    ~5E7q 21.4 GVNEOCPH01
     P10NLQU  C2019 05 14.30695716 15 11.09 +17 16 49.8    ~5E7q 21.4 GVNEOCPH01
     P10NLQU  C2019 05 14.31449316 15 11.48 +17 17 03.7    ~5E7q 22.0 GVNEOCPH01
     P10NLQU ^C2019 05 15*u(eV=m8d]aGPWs%NYkxG8*1h8$7:/3BNi_B(J%iK0!h]ppqn=cS695
     P10NLQU ^C2019 05 15NQk*/(Dro@G_Cg*0/f1QI7forG@bp7%#@0HJ@*Iexplanationli695

Station data:
(691) Steward Observatory, Kitt Peak - Spacewatch  (N31.962174 W111.600327)
   US/Arizona.  Observer J. V. Scotti. 0.9-m f/3 reflector + CCD.
(695) Kitt Peak  (N31.958398 W111.594670)  US/Arizona.
(F51) Pan-STARRS 1, Haleakala  (N20.707235 W156.255910)  US/Hawaii.
   Observers N. Primak, A. Schultz, S. Watters, J. Thiel, T. Goggia. Measurer
   PS1 Science Consortium. 1.8-m Ritchey-Chrétien + CCD.
(H01) Magdalena Ridge Observatory, Socorro  (N33.984833 W107.189333)  US/New
   Mexico.  Observers W. H. Ryan, E. V. Ryan. Measurer W. H. Ryan. 2.4-m
   f/8.9 reflector + CCD.
(V06) Catalina Sky Survey-Kuiper  (N32.416847 W110.732550)  US/Arizona.
   Observers T. A. Pruyne, B. M. Africano, E. J. Christensen, G. A. Farneth,
   D. C. Fuls, A. R. Gibbs, A. D. Grauer, H. Groeller, J. A. Johnson, R. A.
   Kowalski, S. M. Larson, G. J. Leonard, R. L. Seaman, F. C. Shelly. 1.55-m
   reflector + CCD.

Orbital elements:  P10NLQU
   Perihelion 2019 Jul 11.478120 +/- 0.0331 TT = 11:28:29 (JD 2458675.978120)
Epoch 2019 May 15.0 TT = JDT 2458618.5   Earth MOID: 0.0757   AutoNEOCP
M 340.25722727 +/- 0.6              (J2000 ecliptic)
n   0.34348327 +/- 0.0106           Peri.  151.03024 +/- 0.7
a   2.01929137 +/- 0.0417           Node   139.13242 +/- 0.6
e   0.4697631 +/- 0.00993           Incl.    8.12250 +/- 0.12
P   2.87                   H 22.7   G  0.15   U  9.7  
q 1.07070271 +/- 0.00215    Q 2.96788003 +/- 0.0839
From 16 observations 2019 May 9-15; mean residual 0".19
Residuals in arcseconds: 
190509 F51  .02-  .13-    190511 V06  .16+  .09+    190514 H01  .06-  .08-    
190509 F51  .00   .05-    190511 V06  .12-  .46-    190514 H01  .09-  .01-    
190509 F51  .13-  .09+    190511 V06  .17+  .40-    190515 695  .14-  .12-    
190511 691  .19+  .05-    190511 V06  .11-  .06+    190515 695  .25+  .27+    
190511 691  .05+  .36+    190514 H01  .01+  .10-    
190511 691  .04-  .52+    190514 H01  .17-  .14-    

Ephemerides (geocentric):
Date (UTC) HH   RA              Dec         delta   r     elong  mag " sig PA
---- -- -- --  -------------   -----------  ------ ------ -----  --- ---- ---
2019 05 21 08  16 23 11.374   +20 53 19.49  .25288 1.2124 138.2 21.6 5.09  57
2019 05 21 09  16 23 14.496   +20 54 36.94  .25269 1.2122 138.2 21.6 5.16  57
2019 05 21 10  16 23 17.622   +20 55 54.40  .25250 1.2120 138.2 21.6 5.22  57
2019 05 21 11  16 23 20.752   +20 57 11.86  .25231 1.2118 138.2 21.6 5.29  57
2019 05 21 12  16 23 23.886   +20 58 29.32  .25212 1.2116 138.1 21.6 5.35  57
2019 05 21 13  16 23 27.023   +20 59 46.78  .25193 1.2113 138.1 21.6 5.42  57
2019 05 21 14  16 23 30.165   +21 01 04.24  .25175 1.2111 138.1 21.6 5.49  57
2019 05 21 15  16 23 33.310   +21 02 21.70  .25156 1.2109 138.1 21.6 5.55  57
2019 05 21 16  16 23 36.460   +21 03 39.17  .25137 1.2107 138.0 21.6 5.62  57
2019 05 21 17  16 23 39.613   +21 04 56.63  .25118 1.2105 138.0 21.6 5.69  57
2019 05 21 18  16 23 42.771   +21 06 14.10  .25100 1.2103 138.0 21.6 5.76  57
2019 05 21 19  16 23 45.932   +21 07 31.57  .25081 1.2101 138.0 21.6 5.83  57
2019 05 21 20  16 23 49.097   +21 08 49.04  .25062 1.2099 137.9 21.6 5.90  57
2019 05 21 21  16 23 52.267   +21 10 06.51  .25043 1.2097 137.9 21.6 5.97  57
2019 05 21 22  16 23 55.440   +21 11 23.98  .25025 1.2095 137.9 21.6 6.04  57
2019 05 21 23  16 23 58.617   +21 12 41.45  .25006 1.2093 137.9 21.6 6.11  57
2019 05 22 00  16 24 01.798   +21 13 58.93  .24987 1.2091 137.8 21.6 6.19  57
2019 05 22 01  16 24 04.984   +21 15 16.40  .24969 1.2089 137.8 21.6 6.26  57
2019 05 22 02  16 24 08.173   +21 16 33.87  .24950 1.2087 137.8 21.6 6.33  57
2019 05 22 03  16 24 11.367   +21 17 51.35  .24931 1.2085 137.8 21.6 6.41  57
2019 05 22 04  16 24 14.564   +21 19 08.83  .24913 1.2083 137.7 21.6 6.48  57
2019 05 22 05  16 24 17.766   +21 20 26.30  .24894 1.2080 137.7 21.6 6.56  57
2019 05 22 06  16 24 20.972   +21 21 43.78  .24876 1.2078 137.7 21.6 6.64  57
2019 05 22 07  16 24 24.182   +21 23 01.25  .24857 1.2076 137.7 21.6 6.71  57
2019 05 22 08  16 24 27.396   +21 24 18.73  .24839 1.2074 137.6 21.6 6.79  57
2019 05 22 09  16 24 30.614   +21 25 36.21  .24820 1.2072 137.6 21.6 6.87  57
2019 05 22 10  16 24 33.836   +21 26 53.68  .24801 1.2070 137.6 21.6 6.95  57
2019 05 22 11  16 24 37.063   +21 28 11.16  .24783 1.2068 137.6 21.6 7.03  57
2019 05 22 12  16 24 40.294   +21 29 28.63  .24764 1.2066 137.6 21.6 7.11  57
2019 05 22 13  16 24 43.529   +21 30 46.11  .24746 1.2064 137.5 21.5 7.19  57
2019 05 22 14  16 24 46.768   +21 32 03.59  .24727 1.2062 137.5 21.5 7.27  57
2019 05 22 15  16 24 50.011   +21 33 21.06  .24709 1.2060 137.5 21.5 7.35  57
2019 05 22 16  16 24 53.259   +21 34 38.54  .24690 1.2058 137.5 21.5 7.44  57
2019 05 22 17  16 24 56.511   +21 35 56.01  .24672 1.2056 137.4 21.5 7.52  57
2019 05 22 18  16 24 59.767   +21 37 13.48  .24654 1.2054 137.4 21.5 7.60  57
2019 05 22 19  16 25 03.027   +21 38 30.96  .24635 1.2052 137.4 21.5 7.69  57
2019 05 22 20  16 25 06.292   +21 39 48.43  .24617 1.2050 137.4 21.5 7.77  57
2019 05 22 21  16 25 09.561   +21 41 05.90  .24598 1.2048 137.3 21.5 7.86  57
2019 05 22 22  16 25 12.834   +21 42 23.37  .24580 1.2046 137.3 21.5 7.94  57
2019 05 22 23  16 25 16.112   +21 43 40.84  .24562 1.2044 137.3 21.5 8.03  57
2019 05 23 00  16 25 19.394   +21 44 58.31  .24543 1.2042 137.3 21.5 8.12  57
2019 05 23 01  16 25 22.681   +21 46 15.78  .24525 1.2040 137.2 21.5 8.21  57
2019 05 23 02  16 25 25.971   +21 47 33.24  .24506 1.2038 137.2 21.5 8.30  57
2019 05 23 03  16 25 29.267   +21 48 50.71  .24488 1.2036 137.2 21.5 8.39  57
2019 05 23 04  16 25 32.566   +21 50 08.17  .24470 1.2034 137.2 21.5 8.48  57
2019 05 23 05  16 25 35.870   +21 51 25.64  .24452 1.2031 137.1 21.5 8.57  57
2019 05 23 06  16 25 39.179   +21 52 43.10  .24433 1.2029 137.1 21.5 8.66  57
2019 05 23 07  16 25 42.491   +21 54 00.56  .24415 1.2027 137.1 21.5 8.75  57